Weather Roundup
Issued by NWS Corpus Christi, TX

Home | Current Version | Previous Version | Text Only | Print | Product List | Glossary On
Versions: 1 2 3 4 5 6 7 8 9 10 11 12 13 14 15 16 17 18 19 20 21 22 23 24 25 26 27 28 29 30 31 32 33 34 35 36 37 38 39 40 41 42 43 44 45 46 47 48 49 50
000
ASUS44 KCRP 092010
HRRCRP

SOUTH TEXAS REGIONAL WEATHER ROUNDUP
NATIONAL WEATHER SERVICE CORPUS CHRISTI TX
200 PM CST TUE FEB 09 2016


TXZ229>244-092100-
...CORPUS CHRISTI AREA OBSERVATIONS...

CITY           SKY/WX    TMP DP  RH WIND       PRES   REMARKS
CORPUS CHRISTI MOSUNNY   73  23  15 N9G21     30.30F
NAS CORPUS CHR MOSUNNY   69  27  20 E6        30.30F
ROCKPORT       SUNNY     72  26  18 VRB5      30.29F
KINGSVILLE NAS MOSUNNY   73  29  19 NE8G18    30.30F
ALICE            N/A     74  25  16 N15       30.29F
FALFURRIAS     SUNNY     73  18  12 N3        30.29F
$$

...VICTORIA AREA OBSERVATIONS...

CITY           SKY/WX    TMP DP  RH WIND       PRES   REMARKS
VICTORIA       SUNNY     69  26  20 NW14      30.28F
BEEVILLE       FAIR      71  29  21 NW12G18   30.30F
PLEASANTON     SUNNY     71  27  19 W12       30.30F
SAN ANTONIO    SUNNY     69  29  22 VRB7      30.28F
$$

...LAREDO AREA OBSERVATIONS...

CITY           SKY/WX    TMP DP  RH WIND       PRES   REMARKS
LAREDO         SUNNY     71  21  15 W5        30.32F
COTULLA        SUNNY     73  25  16 W7        30.30F
DEL RIO        SUNNY     69  19  15 CALM      30.31F
MCALLEN        SUNNY     77  22  13 W9        30.31F
HEBBRONVILLE   NOT AVBL
$$

...OTHER TEXAS OBSERVATIONS...

CITY           SKY/WX    TMP DP  RH WIND       PRES   REMARKS
BROWNSVILLE    SUNNY     74  27  17 N6        30.32F
HOUSTON        SUNNY     64  20  18 NW9G24    30.24F
COL. STATION   SUNNY     63  20  19 W5        30.26F
AUSTIN         SUNNY     71  28  20 NW13G23   30.25F
WACO           SUNNY     68  27  21 NW18G24   30.22F
FORT WORTH     SUNNY     62  24  23 NW17      30.22F
WICHITA FALLS  SUNNY     59  25  27 N7        30.25F
LUBBOCK        SUNNY     65  22  19 W10G20    30.30F
EL PASO        SUNNY     60  16  18 N5        30.33F
$$

...MARINE OBSERVATIONS...

STATION/POSITION TIME  SKY/WX   TEMP    WIND        PRES    VSBY  WAVE   SWELL
                                AIR SEA DIR/SP/G                  HT/PER HT/PER
                 (UTC)          (F)     (DEG/KT/KT) (MB)    (MI)  (FT/S) (FT/S)
PORT ARANSAS     2000            58 59  140/  8/  9 1027.0F
BUOY 90 E PORT A 1950            59 68  320/ 14/ 16 1025.6F         4/ 5
BUOY 45 SE BAFFI 1950            62 69   20/ 12/ 14 1026.4F         2/ 4
BUOY 200 E PT IS 1950                                 N/A           8/ 8
BUOY 15 E GALVES 1950            54 57  300/ 12/ 16 1024.3F         2/ 4
$$



USA.gov is the U.S. government's official web portal to all federal, state and local government web resources and services.